DW5225 Weather Reports


Display with metric or nautical units.
time (UTC)temp
F
wind
direction
speed
MPH
gust
MPH
rain 1hr
in
rain 24hr
in
rain mn
in
humidity
%
barometer
mb
20260901233051 58 0 0.0 0.0 0.00 0.00 0.00 78 1025.6
20260901231547 58 0 0.0 0.0 0.00 0.00 0.00 78 1025.7
20260901224543 58 0 0.0 0.0 0.00 0.00 0.00 77 1025.5
20260901223101 58 0 0.0 0.0 0.00 0.00 0.00 76 1025.3
20260901221548 59 0 0.0 0.0 0.00 0.00 0.00 75 1025.3
20260901220104 59 0 0.0 0.0 0.00 0.00 0.00 75 1025.4
20260901214549 60 0 0.0 0.0 0.00 0.00 0.00 74 1025.5
20260901213051 60 0 0.0 0.0 0.00 0.00 0.00 74 1025.5
20260901211544 60 0 0.0 0.0 0.00 0.00 0.00 73 1025.5
20260901210049 60 0 0.0 0.0 0.00 0.00 0.00 73 1025.5
20260901204548 61 0 0.0 0.0 0.00 0.00 0.00 72 1025.3
20260901203052 62 0 0.0 0.0 0.00 0.00 0.00 70 1025.3
20260901201556 62 0 0.0 0.0 0.00 0.00 0.00 69 1025.3
20260901200049 63 0 0.0 0.0 0.00 0.00 0.00 68 1025.3
20260901194551 63 0 0.0 0.0 0.00 0.00 0.00 68 1025.0
20260901193050 63 0 0.0 3.0 0.00 0.00 0.00 69 1024.9
20260901191604 63 0 0.0 1.0 0.00 0.00 0.00 69 1024.8
20260901190054 63 0 0.0 0.0 0.00 0.00 0.00 69 1024.7
20260901184609 63 0 0.0 4.0 0.00 0.00 0.00 69 1024.6
20260901183053 63 0 0.0 0.0 0.00 0.00 0.00 69 1024.4
20260901181556 64 0 0.0 0.0 0.00 0.00 0.00 67 1024.1
20260901180055 65 0 0.0 1.0 0.00 0.00 0.00 65 1024.0
20260901174556 67 0 0.0 4.0 0.00 0.03 0.00 61 1023.9
20260901173047 66 33 0.0 6.0 0.00 0.03 0.00 62 1023.8
20260901171544 66 360 2.0 11.0 0.00 0.03 0.00 64 1023.6
20260901170051 67 322 2.0 8.0 0.00 0.03 0.00 64 1023.5
20260901164550 68 0 0.0 0.0 0.00 0.04 0.00 63 1023.4
20260901163046 69 0 0.0 4.0 0.00 0.04 0.00 61 1023.3
20260901161609 70 296 0.0 4.0 0.00 0.04 0.00 59 1023.2
20260901160105 71 0 0.0 4.0 0.00 0.04 0.00 58 1023.1
20260901154550 70 0 0.0 8.0 0.00 0.11 0.00 58 1023.0
20260901153100 71 330 2.0 9.0 0.00 0.11 0.00 56 1023.1
20260901151546 71 0 2.0 10.0 0.00 0.11 0.00 55 1023.0
20260901150044 72 0 2.0 9.0 0.00 0.11 0.00 52 1023.1
20260901144551 72 0 0.0 9.0 0.00 0.11 0.00 52 1023.0
20260901143111 72 0 0.0 9.0 0.00 0.11 0.00 52 1023.0
20260901141546 72 306 0.0 10.0 0.00 0.11 0.00 52 1023.0
20260901140047 72 0 4.0 10.0 0.00 0.11 0.00 51 1023.2
20260901134549 71 0 3.0 11.0 0.00 0.11 0.00 50 1023.2
20260901133047 71 0 0.0 11.0 0.00 0.11 0.00 51 1023.3
20260901131544 71 0 0.0 10.0 0.00 0.11 0.00 51 1023.3
20260901130052 70 360 2.0 12.0 0.00 0.11 0.00 49 1023.6
20260901124550 70 303 4.0 11.0 0.00 0.11 0.00 50 1023.8
20260901123056 69 338 5.0 11.0 0.00 0.11 0.00 52 1023.7
20260901121545 69 320 3.0 10.0 0.00 0.11 0.00 54 1023.8
20260901120058 68 318 6.0 10.0 0.00 0.11 0.00 58 1023.8
20260901114550 68 313 3.0 10.0 0.00 0.12 0.00 60 1024.0
20260901113045 68 324 4.0 11.0 0.00 0.12 0.00 62 1024.0
20260901111602 67 0 2.0 9.0 0.00 0.12 0.00 67 1024.2
20260901110049 66 348 1.0 7.0 0.00 0.12 0.00 71 1024.3
20260901104549 66 339 2.0 8.0 0.00 0.12 0.00 70 1024.5
20260901103050 65 275 1.0 7.0 0.00 0.12 0.00 69 1024.7
20260901101549 64 0 1.0 7.0 0.00 0.12 0.00 74 1024.8
20260901100052 63 0 1.0 7.0 0.00 0.12 0.00 77 1024.9
20260901094554 61 0 1.0 9.0 0.00 0.12 0.00 80 1025.0
20260901093052 61 254 0.0 7.0 0.00 0.12 0.00 83 1025.2
20260901091550 60 275 0.0 6.0 0.00 0.12 0.00 84 1025.3
20260901090048 60 0 0.0 5.0 0.00 0.12 0.00 85 1025.5
20260901084554 59 0 0.0 2.0 0.00 0.12 0.00 85 1025.5
20260901083050 58 0 0.0 0.0 0.00 0.12 0.00 86 1025.6
20260901081548 57 0 0.0 0.0 0.00 0.12 0.00 88 1025.8
20260901080048 57 0 0.0 0.0 0.00 0.12 0.00 90 1025.6
20260901074543 56 0 0.0 0.0 0.00 0.12 0.00 91 1025.7
20260901073051 55 0 0.0 0.0 0.00 0.12 0.00 92 1025.8
20260901071547 55 0 0.0 0.0 0.00 0.12 0.00 93 1025.9
20260901070049 54 0 0.0 0.0 0.00 0.12 0.00 93 1025.9
20260901064552 54 0 0.0 0.0 0.00 0.12 0.00 93 1025.9
20260901063104 54 0 0.0 0.0 0.00 0.12 0.00 93 1025.9
20260901061558 54 0 0.0 0.0 0.00 0.12 0.00 93 1025.9
20260901060059 53 0 0.0 0.0 0.00 0.12 0.00 93 1025.9
20260901054548 53 0 0.0 0.0 0.00 0.13 0.00 93 1025.9
20260901053104 53 0 0.0 0.0 0.00 0.13 0.00 92 1025.7
20260901051551 53 0 0.0 0.0 0.00 0.13 0.00 92 1025.6
20260901050050 53 0 0.0 0.0 0.00 0.13 0.00 92 1025.5
20260901044559 53 0 0.0 0.0 0.00 0.13 0.00 92 1025.2
20260901043046 53 0 0.0 0.0 0.00 0.13 0.00 92 1025.2
20260901041550 53 0 0.0 0.0 0.00 0.12 0.00 92 1025.3
20260901040052 53 0 0.0 0.0 0.00 0.12 0.00 92 1025.2
20260901034552 53 0 0.0 0.0 0.00 0.12 0.00 92 1025.3
20260901033050 53 0 0.0 0.0 0.00 0.12 0.00 92 1025.3
20260901031547 53 0 0.0 0.0 0.00 0.12 0.00 91 1025.3
20260901030054 54 0 0.0 0.0 0.00 0.12 0.00 91 1025.3
20260901024554 54 0 0.0 0.0 0.00 0.21 0.00 92 1025.3
20260901023048 54 0 0.0 0.0 0.00 0.21 0.00 92 1025.4
20260901021554 54 0 0.0 0.0 0.00 0.21 0.00 92 1025.4
20260901020107 55 0 0.0 0.0 0.00 0.21 0.00 92 1025.3
20260901014549 55 0 0.0 0.0 0.00 0.21 0.00 92 1025.4
20260901013054 55 0 0.0 0.0 0.00 0.21 0.00 93 1025.5
20260901011550 55 0 0.0 0.0 0.00 0.21 0.00 92 1025.5
20260901010051 54 0 0.0 0.0 0.00 0.21 0.00 92 1025.3
20260901004604 55 0 0.0 0.0 0.00 0.21 0.00 92 1025.3
20260901003054 55 0 0.0 0.0 0.00 0.21 0.00 93 1025.3
20260901001550 55 0 0.0 0.0 0.00 0.21 0.00 92 1025.3
20260901000105 55 0 0.0 0.0 0.00 0.21 0.00 92 1025.2
20260831234545 55 0 0.0 0.0 0.00 0.21 0.00 92 1025.1